Weather History for Ord, NE

Change the Weather History Date:

Thursday, October 25, 2012

  Actual Average Record
Temperature  
Mean Temperature 34 °F 46 °F  
Max Temperature 36 °F 59 °F 73 °F (1998)
Min Temperature 31 °F 33 °F 21 °F (2003)
Degree Days  
Heating Degree Days 31    
Month to date heating degree days 405  
Since 1 July heating degree days 547  
Cooling Degree Days 0    
Month to date cooling degree days 0  
Year to date cooling degree days 1220  
Moisture  
Dew Point 29 °F    
Average Humidity 86    
Maximum Humidity 100    
Minimum Humidity 72    
Precipitation  
Precipitation 0.19 in 0.05 in 1.61 in (1921)
Month to date precipitation 0.20 1.65  
Year to date precipitation 11.25 23.00  
Sea Level Pressure  
Sea Level Pressure 30.09 in    
Wind  
Wind Speed 17 mph (NNW)    
Max Wind Speed 30 mph    
Max Gust Speed 37 mph    
Visibility 5 miles    
Events Rain , Snow    
T = Trace of Precipitation, MM = Missing Value Source: NWS Daily Summary

Daily Weather History Graph

Daily Weather History Graph

Search for Another Location

Airport:

Trip Planner

Search our weather history database for the weather conditions in past years. The results will help you decide how hot, cold, wet, or windy it might be!

Date:

Astronomy

Oct. 25, 2012 Rise Set
Actual Time 8:00 AM CDT 6:38 PM CDT
Civil Twilight 7:31 AM CDT 7:07 PM CDT
Nautical Twilight 6:59 AM CDT 7:39 PM CDT
Astronomical Twilight 6:26 AM CDT 8:12 PM CDT
Moon 4:28 PM CDT (10/25) 3:55 AM CDT (10/25)
Length of Visible Light 11h 35m
Length of Day
10h 38m
Waxing Gibbous, 84% of the Moon is Illuminated
Oct 25
Waxing Gibbous
Oct 29
Full
Nov 6
Last Quarter
Nov 13
New
Nov 20
First Quarter

Hourly Weather History & Observations

Time (CDT) Temp. Windchill Dew Point Humidity Pressure Visibility Wind Dir Wind Speed Gust Speed Precip Events Conditions
12:27 AM 37.4 °F 26.9 °F 33.8 °F 87% 29.85 in 10.0 mi NNW 20.7 mph 29.9 mph 0.00 in Rain Light Rain
12:53 AM 36.0 °F 25.3 °F 34.0 °F 93% 29.91 in 10.0 mi NNW 19.6 mph 28.8 mph 0.00 in Rain Light Rain
1:46 AM 33.8 °F 22.8 °F 32.0 °F 93% 29.89 in 2.0 mi NNW 18.4 mph 25.3 mph 0.04 in Snow Light Snow
1:53 AM 33.1 °F 20.9 °F 30.9 °F 92% 29.91 in 1.2 mi NNW 21.9 mph 29.9 mph 0.04 in Snow Light Snow
2:00 AM 33.8 °F 21.6 °F 32.0 °F 93% 29.87 in 1.0 mi North 23.0 mph 29.9 mph 0.01 in Snow Light Snow
2:15 AM 33.8 °F 21.9 °F 30.2 °F 87% 29.89 in 0.8 mi NNW 21.9 mph 28.8 mph N/A Snow Light Snow
2:53 AM 32.0 °F 19.8 °F 30.9 °F 96% 29.94 in 0.8 mi NNW 20.7 mph 27.6 mph 0.08 in Snow Light Snow
3:40 AM 33.8 °F 22.2 °F 30.2 °F 87% 29.96 in 1.2 mi NNW 20.7 mph 25.3 mph 0.04 in Snow Light Snow
3:51 AM 32.0 °F 19.2 °F 30.2 °F 93% 29.94 in 1.2 mi NNW 23.0 mph 27.6 mph 0.04 in Snow Light Snow
3:53 AM 32.0 °F 19.8 °F 30.9 °F 96% 29.98 in 1.0 mi NNW 20.7 mph 27.6 mph 0.04 in Snow Light Snow
4:02 AM 32.0 °F 19.8 °F 30.2 °F 93% 29.95 in 0.8 mi NNW 20.7 mph 28.8 mph 0.00 in Snow Light Snow
4:21 AM 32.0 °F 19.5 °F 30.2 °F 93% 29.95 in 1.2 mi NNW 21.9 mph - 0.01 in Snow Light Snow
4:50 AM 32.0 °F 20.1 °F 30.2 °F 93% 29.96 in 1.8 mi NNW 19.6 mph 29.9 mph 0.01 in Snow Light Snow
4:53 AM 32.0 °F 20.1 °F 30.9 °F 96% 30.00 in 1.8 mi NNW 19.6 mph 27.6 mph 0.01 in Snow Light Snow
5:19 AM 32.0 °F 18.9 °F 30.2 °F 93% 29.95 in 1.5 mi NNW 24.2 mph 33.4 mph 0.00 in Snow Light Snow
5:37 AM 32.0 °F 20.1 °F 30.2 °F 93% 29.99 in 1.8 mi NNW 19.6 mph 28.8 mph 0.02 in Snow Light Snow
5:50 AM 32.0 °F 20.5 °F 30.2 °F 93% 30.00 in 2.0 mi NNW 18.4 mph - 0.02 in Snow Light Snow
5:53 AM 32.0 °F 19.8 °F 30.9 °F 96% 30.04 in 2.0 mi NNW 20.7 mph - 0.02 in Snow Light Snow
6:02 AM 32.0 °F 19.5 °F 30.2 °F 93% 29.99 in 3.0 mi NNW 21.9 mph 28.8 mph 0.00 in Snow Light Snow
6:23 AM 32.0 °F 19.5 °F 30.2 °F 93% 30.00 in 2.5 mi NNW 21.9 mph - 0.00 in Snow Light Snow
6:27 AM 32.0 °F 19.2 °F 30.2 °F 93% 30.00 in 1.8 mi NNW 23.0 mph 32.2 mph 0.00 in Snow Light Snow
6:33 AM 32.0 °F 18.1 °F 30.2 °F 93% 30.00 in 1.0 mi NNW 27.6 mph 34.5 mph N/A Snow Light Snow
6:38 AM 32.0 °F 18.6 °F 30.2 °F 93% 30.00 in 1.2 mi NNW 25.3 mph 35.7 mph 0.00 in Snow Light Snow
6:40 AM 32.0 °F 18.6 °F 30.2 °F 93% 30.00 in 1.2 mi NNW 25.3 mph 35.7 mph 0.00 in Snow Light Snow
6:53 AM 32.0 °F 18.4 °F 30.0 °F 92% 30.05 in 1.5 mi NNW 26.5 mph 35.7 mph 0.00 in Snow Light Snow
7:06 AM 32.0 °F 17.6 °F 28.4 °F 87% 30.01 in 2.0 mi NNW 29.9 mph 36.8 mph 0.00 in Snow Light Snow
7:14 AM 32.0 °F 18.9 °F 28.4 °F 87% 30.02 in 3.0 mi NNW 24.2 mph 36.8 mph 0.00 in Snow Light Snow
7:35 AM 32.0 °F 19.2 °F 28.4 °F 87% 30.04 in 5.0 mi NNW 23.0 mph 32.2 mph 0.00 in Snow Light Snow
7:53 AM 32.0 °F 19.5 °F 28.9 °F 88% 30.11 in 6.0 mi NNW 21.9 mph 29.9 mph 0.00 in Snow Light Snow
8:50 AM 32.0 °F 20.5 °F 28.4 °F 87% 30.09 in 7.0 mi NNW 18.4 mph - N/A   Overcast
8:53 AM 32.0 °F 20.1 °F 28.9 °F 88% 30.14 in 9.0 mi NNW 19.6 mph - 0.00 in   Overcast
9:53 AM 33.1 °F 22.6 °F 28.9 °F 85% 30.17 in 10.0 mi NW 16.1 mph - N/A   Overcast
10:53 AM 33.1 °F 22.2 °F 28.0 °F 82% 30.18 in 10.0 mi NNW 17.3 mph - N/A   Overcast
11:53 AM 34.0 °F 22.4 °F 33.1 °F 96% 30.20 in 10.0 mi NW 20.7 mph 26.5 mph N/A   Scattered Clouds
12:02 PM 33.8 °F 21.6 °F 33.8 °F 100% 30.15 in 10.0 mi NNW 23.0 mph 26.5 mph N/A   Mostly Cloudy
12:53 PM 34.0 °F 23.4 °F 34.0 °F 100% 30.22 in 10.0 mi NNW 17.3 mph 25.3 mph N/A   Overcast
1:53 PM 34.0 °F 23.8 °F 28.0 °F 79% 30.24 in 10.0 mi NNW 16.1 mph - N/A   Overcast
2:53 PM 33.1 °F 20.9 °F 27.0 °F 78% 30.26 in 10.0 mi NNW 21.9 mph 28.8 mph N/A   Overcast
3:53 PM 33.1 °F 22.6 °F 27.0 °F 78% 30.27 in 10.0 mi NNW 16.1 mph - N/A   Overcast
4:53 PM 32.0 °F 22.1 °F 27.0 °F 82% 30.31 in 10.0 mi NNW 13.8 mph - N/A   Overcast
5:53 PM 32.0 °F 20.5 °F 25.0 °F 75% 30.32 in 10.0 mi NNW 18.4 mph 27.6 mph N/A   Overcast
6:53 PM 32.0 °F 21.6 °F 25.0 °F 75% 30.36 in 10.0 mi NNW 15.0 mph 24.2 mph N/A   Overcast
7:53 PM 32.0 °F 22.5 °F 26.1 °F 79% 30.40 in 10.0 mi NW 12.7 mph - N/A   Overcast
8:53 PM 32.0 °F 24.2 °F 25.0 °F 75% 30.41 in 10.0 mi NNW 9.2 mph - N/A   Overcast
9:53 PM 30.9 °F 19.8 °F 24.1 °F 76% 30.42 in 10.0 mi NNW 16.1 mph - N/A   Overcast
10:53 PM 30.2 °F 19.3 °F 24.8 °F 80% 30.36 in 10.0 mi North 15.0 mph - N/A   Overcast
11:53 PM 30.9 °F 23.5 °F 25.0 °F 79% 30.43 in 10.0 mi North 8.1 mph - N/A   Overcast